Location: Tryon
(41.5533°N, 100.9574°W)
Time: 15:51:40
(UTC-05:00)

Tiangong 2 - Pass Details

Date: 22 March 2019
Orbit: 378 x 390 km, 42.8° (Epoch: 23 April)

Event Time Altitude Azimuth Distance (km) Brightness Sun altitude
Exits shadow 05:52:37 34° 133° (SE) 650 2.4 -21.2°
Drops below altitude 10° 05:54:36 10° 119° (ESE) 1,397 4.4 -20.9°
Sets 05:56:41 0° 115° (ESE) 2,251 5.6 -20.5°
